This demonstration page uses our WeatherBlox Daily Observations layout. Learn more.

Left ArrowRight Arrow

31.84235, -102.49876

Hourly Observations for May 8, 2017

Temp ( °F °C ) Dew Point ( °F °C ) Humidity (%) Winds ( mph kmh ) Pressure ( in mb ) Visibility ( mi km ) Precip ( " mm )
12:53 am 00:53 Clear 72 22.2 46 7.8 40 40 SSE 20 31 29.73 1007 10 16 0.00 0.00
1:53 am 01:53 Clear 70 21.1 46 7.8 42 42 SSE 16 26 29.73 1007 10 16 0.00 0.00
2:53 am 02:53 Clear 69 20.6 47 8.3 45 45 SSE 16 26 29.70 1006 10 16 0.00 0.00
3:53 am 03:53 Clear 67 19.4 47 8.3 49 49 SSE 16 26 29.70 1006 10 16 0.00 0.00
4:53 am 04:53 Clear 66 18.9 49 9.4 54 54 SSE 13 20 29.70 1006 10 16 0.00 0.00
5:53 am 05:53 Clear 65 18.3 52 11.1 63 63 SSE 13 20 29.72 1007 10 16 0.00 0.00
6:53 am 06:53 Clear 64 17.8 55 12.8 73 73 SSE 13 20 29.72 1007 10 16 0.00 0.00
7:40 am 07:40 Mostly Cloudy 65 18.3 56 13.3 73 73 S 14 22 29.77 1008 10 16 0.00 0.00
7:53 am 07:53 Cloudy 65 18.3 57 13.9 76 76 S 15 24 29.77 1008 10 16 0.00 0.00
8:53 am 08:53 Cloudy 67 19.4 59 15 76 76 S 14 22 29.79 1009 9 14 0.00 0.00
9:53 am 09:53 Cloudy 70 21.1 59 15 68 68 SSE 20 31 29.79 1009 10 16 0.00 0.00
10:53 am 10:53 Partly Cloudy 73 22.8 59 15 62 62 SSE 18 30 29.79 1009 10 16 0.00 0.00
11:53 am 11:53 Mostly Sunny 76 24.4 59 15 56 56 SSE 17 28 29.79 1009 10 16 0.00 0.00
12:53 pm 12:53 Sunny 80 26.7 58 14.4 47 47 SSE 15 24 29.78 1008 10 16 0.00 0.00
1:53 pm 13:53 Mostly Sunny 82 27.8 57 13.9 42 42 SE 18 30 29.75 1008 10 16 0.00 0.00
2:53 pm 14:53 Sunny 83 28.3 57 13.9 41 41 SE 20 31 29.74 1007 10 16 0.00 0.00
3:53 pm 15:53 Sunny 83 28.3 58 14.4 43 43 SSE 22 35 29.74 1007 10 16 0.00 0.00
4:53 pm 16:53 Mostly Sunny 81 27.2 58 14.4 45 45 SE 23 37 29.74 1007 10 16 0.00 0.00
5:53 pm 17:53 Mostly Cloudy 77 25 60 15.6 56 56 SE 28 44 29.75 1007 10 16 0.00 0.00
6:53 pm 18:53 Cloudy 72 22.2 60 15.6 66 66 SSE 25 41 29.77 1008 10 16 0.00 0.00
7:53 pm 19:53 Cloudy 71 21.7 60 15.6 68 68 SE 25 41 29.78 1008 10 16 0.00 0.00
8:53 pm 20:53 Cloudy 70 21.1 59 15 68 68 SSE 25 41 29.78 1008 10 16 0.00 0.00
9:53 pm 21:53 Cloudy 69 20.6 60 15.6 73 73 SE 28 44 29.78 1009 10 16 0.00 0.00
10:53 pm 22:53 Cloudy 69 20.6 59 15 70 70 SSE 22 35 29.80 1009 10 16 0.00 0.00
11:53 pm 23:53 Cloudy 68 20 59 15 73 73 SSE 25 41 29.79 1009 10 16 0.00 0.00

Powered by AerisWeather